User: anonymous   Login
Location: Unspecified
(0.0000°N, 0.0000°E)
Time: 10:43:55
(UTC+00:00)
Language:

Falconsat - Orbit

View from above orbital plane
View from above orbital plane
View from above satellite
View from above satellite

Ground track
Ground track

The orbit data is extracted from the following two-line orbital elements,

1 26064U 00004D   18346.90370869 -.00000006 +00000-0 +18214-4 0  9993
2 26064 100.1911 090.7651 0037290 230.0535 129.7367 14.36170072988898
Epoch (UTC): 12 December 2018 21:41:20
Eccentricity: 0.0037290
inclination: 100.1911°
perigee height: 744 km
apogee height: 798 km
right ascension of ascending node: 90.7651°
argument of perigee: 230.0535°
revolutions per day: 14.36170072
mean anomaly at epoch: 129.7367°
orbit number at epoch: 98889

The dashed part of the orbit path shows where the satellite is in the earth's shadow,  

DLR